When you browse on this site, cookies collect data to enhance your experience and personalize the content and advertising you see.
Visit our Privacy Policy to learn more. By continuing to use the site, you agree to this use of cookies and data.
  • In Österreich
  • Länderverzeichnis
  • Für 7 Tage
  • Wassertemperatur
  • Wetterkarte
  • News
  • Widgets
  • user-avatar
    Anmelden

    Stündliche Wetter Santander de Quilichao

    Heute, 23 September, Montag

    Zeit Temperatur Niederschläge Wind Luftdruck Luftfeuchtigkeit
    00:00 +21°C° 0.6 mm 1 m/S 672 mmHg 91%
    01:00 +21°C° 0 mm 1 m/S 672 mmHg 91%
    02:00 +21°C° 0.5 mm 1 m/S 672 mmHg 91%
    03:00 +20°C° 0.5 mm 1 m/S 672 mmHg 91%
    04:00 +20°C° 0.5 mm 1 m/S 672 mmHg 91%
    05:00 +21°C° 0.1 mm 1 m/S 672 mmHg 89%
    06:00 +21°C° 0.1 mm 1 m/S 673 mmHg 87%
    07:00 +22°C° 0 mm 1 m/S 673 mmHg 85%
    08:00 +24°C° 0 mm 1 m/S 674 mmHg 76%
    09:00 +26°C° 0 mm 1 m/S 674 mmHg 68%
    10:00 +29°C° 0 mm 1 m/S 675 mmHg 60%
    11:00 +29°C° 0.3 mm 1 m/S 674 mmHg 58%
    12:00 +30°C° 0.3 mm 1 m/S 674 mmHg 56%
    13:00 +30°C° 0.3 mm 1 m/S 673 mmHg 55%
    14:00 +30°C° 0.5 mm 1 m/S 672 mmHg 59%
    15:00 +29°C° 0.5 mm 1 m/S 672 mmHg 64%
    16:00 +28°C° 0.5 mm 1 m/S 671 mmHg 68%
    17:00 +26°C° 0.6 mm 1 m/S 671 mmHg 75%
    18:00 +24°C° 0.6 mm 1 m/S 671 mmHg 82%
    19:00 +23°C° 0.6 mm 1 m/S 671 mmHg 89%
    20:00 +22°C° 0.2 mm 1 m/S 672 mmHg 88%
    21:00 +21°C° 0.2 mm 1 m/S 672 mmHg 88%
    22:00 +21°C° 0.2 mm 1 m/S 672 mmHg 88%
    23:00 +21°C° 0 mm 1 m/S 672 mmHg 87%

    Morgen, 24 September, Dienstag

    Zeit Temperatur Niederschläge Wind Luftdruck Luftfeuchtigkeit
    00:00 +21°C° 0 mm 1 m/S 672 mmHg 86%
    01:00 +21°C° 0 mm 1 m/S 672 mmHg 85%
    02:00 +20°C° 0 mm 1 m/S 671 mmHg 85%
    03:00 +20°C° 0 mm 1 m/S 671 mmHg 85%
    04:00 +20°C° 0 mm 1 m/S 671 mmHg 85%
    05:00 +21°C° 0 mm 1 m/S 671 mmHg 84%
    06:00 +21°C° 0 mm 1 m/S 672 mmHg 83%
    07:00 +20°C° 0 mm 0 m/S 673 mmHg 81%
    08:00 +24°C° 0 mm 1 m/S 673 mmHg 75%
    09:00 +26°C° 0 mm 1 m/S 674 mmHg 68%
    10:00 +28°C° 0 mm 1 m/S 675 mmHg 62%
    11:00 +29°C° 0.6 mm 1 m/S 674 mmHg 61%
    12:00 +30°C° 0.6 mm 1 m/S 674 mmHg 59%
    13:00 +30°C° 0.6 mm 1 m/S 673 mmHg 58%
    14:00 +29°C° 1.1 mm 1 m/S 673 mmHg 64%
    15:00 +28°C° 1.1 mm 1 m/S 672 mmHg 70%
    16:00 +27°C° 1.1 mm 1 m/S 672 mmHg 76%
    17:00 +26°C° 1.5 mm 1 m/S 672 mmHg 81%
    18:00 +24°C° 1.5 mm 1 m/S 672 mmHg 87%
    19:00 +23°C° 1.5 mm 1 m/S 672 mmHg 92%
    20:00 +23°C° 1.1 mm 1 m/S 672 mmHg 93%
    21:00 +22°C° 1.1 mm 1 m/S 673 mmHg 93%
    22:00 +20°C° 1.1 mm 0 m/S 673 mmHg 94%
    23:00 +20°C° 0.6 mm 0 m/S 673 mmHg 94%

    übermorgen, 25 September, Mittwoch

    Zeit Temperatur Niederschläge Wind Luftdruck Luftfeuchtigkeit
    00:00 +20°C° 0.6 mm 0 m/S 672 mmHg 94%
    01:00 +19°C° 0.6 mm 0 m/S 672 mmHg 95%
    02:00 +19°C° 0.2 mm 0 m/S 672 mmHg 94%
    03:00 +19°C° 0.2 mm 0 m/S 672 mmHg 94%
    04:00 +19°C° 0.2 mm 0 m/S 672 mmHg 93%
    05:00 +19°C° 0.1 mm 0 m/S 672 mmHg 92%
    06:00 +20°C° 0.1 mm 0 m/S 673 mmHg 91%
    07:00 +20°C° 0.1 mm 0 m/S 673 mmHg 90%
    08:00 +22°C° 0.1 mm 0 m/S 674 mmHg 84%
    09:00 +24°C° 0.1 mm 0 m/S 674 mmHg 78%
    10:00 +27°C° 0.1 mm 1 m/S 675 mmHg 72%
    11:00 +28°C° 0.4 mm 1 m/S 674 mmHg 69%
    12:00 +29°C° 0.4 mm 1 m/S 673 mmHg 65%
    13:00 +30°C° 0.4 mm 1 m/S 673 mmHg 62%
    14:00 +29°C° 1 mm 1 m/S 672 mmHg 66%
    15:00 +28°C° 1 mm 1 m/S 672 mmHg 71%
    16:00 +28°C° 1 mm 1 m/S 671 mmHg 75%
    17:00 +26°C° 2.2 mm 1 m/S 671 mmHg 81%
    18:00 +25°C° 2.2 mm 1 m/S 671 mmHg 87%
    19:00 +21°C° 2.2 mm 0 m/S 671 mmHg 93%
    20:00 +21°C° 2 mm 0 m/S 672 mmHg 94%
    21:00 +21°C° 2 mm 0 m/S 672 mmHg 94%
    22:00 +20°C° 2 mm 0 m/S 673 mmHg 95%
    23:00 +20°C° 0.9 mm 0 m/S 673 mmHg 94%

    26 September, Donnerstag

    Zeit Temperatur Niederschläge Wind Luftdruck Luftfeuchtigkeit
    00:00 +22°C° 0.9 mm 1 m/S 672 mmHg 93%
    01:00 +22°C° 0.9 mm 1 m/S 672 mmHg 92%
    02:00 +22°C° 0.4 mm 1 m/S 672 mmHg 92%
    03:00 +21°C° 0.4 mm 1 m/S 672 mmHg 91%
    04:00 +21°C° 0.4 mm 1 m/S 671 mmHg 91%
    05:00 +21°C° 0.2 mm 1 m/S 672 mmHg 90%
    06:00 +22°C° 0.2 mm 1 m/S 672 mmHg 89%
    07:00 +20°C° 0.2 mm 0 m/S 673 mmHg 88%
    08:00 +22°C° 0 mm 0 m/S 673 mmHg 81%
    09:00 +26°C° 0 mm 1 m/S 674 mmHg 74%
    10:00 +28°C° 0 mm 1 m/S 674 mmHg 67%
    11:00 +28°C° 0.6 mm 1 m/S 674 mmHg 67%
    12:00 +28°C° 0.6 mm 1 m/S 673 mmHg 68%
    13:00 +28°C° 0.6 mm 1 m/S 673 mmHg 68%
    14:00 +28°C° 1.1 mm 1 m/S 672 mmHg 71%
    15:00 +27°C° 1.1 mm 1 m/S 672 mmHg 74%
    16:00 +27°C° 1.1 mm 1 m/S 671 mmHg 78%
    17:00 +25°C° 1.3 mm 1 m/S 671 mmHg 82%
    18:00 +24°C° 1.3 mm 1 m/S 671 mmHg 87%
    19:00 +23°C° 1.3 mm 1 m/S 671 mmHg 92%
    20:00 +22°C° 0.8 mm 1 m/S 672 mmHg 92%
    21:00 +22°C° 0.8 mm 1 m/S 672 mmHg 92%
    22:00 +21°C° 0.8 mm 1 m/S 672 mmHg 92%
    23:00 +21°C° 0.1 mm 1 m/S 672 mmHg 92%

    27 September, Freitag

    Zeit Temperatur Niederschläge Wind Luftdruck Luftfeuchtigkeit
    00:00 +21°C° 0.1 mm 1 m/S 672 mmHg 91%
    01:00 +20°C° 0.1 mm 1 m/S 671 mmHg 91%
    02:00 +20°C° 0 mm 1 m/S 671 mmHg 91%
    03:00 +20°C° 0 mm 1 m/S 671 mmHg 90%
    04:00 +18°C° 0 mm 0 m/S 671 mmHg 90%
    05:00 +19°C° 0 mm 0 m/S 671 mmHg 89%
    06:00 +19°C° 0 mm 0 m/S 672 mmHg 88%
    07:00 +19°C° 0 mm 0 m/S 673 mmHg 87%
    08:00 +22°C° 0 mm 0 m/S 673 mmHg 80%
    09:00 +26°C° 0 mm 1 m/S 674 mmHg 73%
    10:00 +28°C° 0 mm 1 m/S 674 mmHg 66%
    11:00 +28°C° 0.8 mm 1 m/S 674 mmHg 66%
    12:00 +28°C° 0.8 mm 1 m/S 673 mmHg 66%
    13:00 +29°C° 0.8 mm 1 m/S 672 mmHg 67%
    14:00 +28°C° 1.4 mm 1 m/S 672 mmHg 70%
    15:00 +28°C° 1.4 mm 1 m/S 671 mmHg 73%
    16:00 +27°C° 1.4 mm 1 m/S 671 mmHg 76%
    17:00 +26°C° 0.9 mm 1 m/S 671 mmHg 81%
    18:00 +24°C° 0.9 mm 1 m/S 671 mmHg 86%
    19:00 +22°C° 0.9 mm 1 m/S 671 mmHg 91%
    20:00 +22°C° 0.7 mm 1 m/S 671 mmHg 91%
    21:00 +22°C° 0.7 mm 1 m/S 671 mmHg 92%
    22:00 +21°C° 0.7 mm 1 m/S 672 mmHg 93%
    23:00 +21°C° 0.2 mm 1 m/S 672 mmHg 93%

    28 September, Samstag

    Zeit Temperatur Niederschläge Wind Luftdruck Luftfeuchtigkeit
    00:00 +21°C° 0.2 mm 1 m/S 672 mmHg 93%
    01:00 +20°C° 0.2 mm 1 m/S 671 mmHg 93%
    02:00 +20°C° 0.3 mm 1 m/S 671 mmHg 93%
    03:00 +20°C° 0.3 mm 1 m/S 671 mmHg 93%
    04:00 +18°C° 0.3 mm 0 m/S 671 mmHg 93%
    05:00 +18°C° 0 mm 0 m/S 671 mmHg 92%
    06:00 +19°C° 0 mm 0 m/S 672 mmHg 90%
    07:00 +20°C° 0 mm 0 m/S 672 mmHg 89%
    08:00 +21°C° 0.1 mm 0 m/S 673 mmHg 84%
    09:00 +25°C° 0.1 mm 1 m/S 673 mmHg 79%
    10:00 +27°C° 0.1 mm 1 m/S 674 mmHg 73%
    11:00 +27°C° 0.6 mm 1 m/S 673 mmHg 73%
    12:00 +28°C° 0.6 mm 1 m/S 672 mmHg 73%
    13:00 +28°C° 0.6 mm 1 m/S 672 mmHg 72%
    14:00 +27°C° 2.1 mm 1 m/S 671 mmHg 77%
    15:00 +26°C° 2.1 mm 1 m/S 670 mmHg 82%
    16:00 +25°C° 2.1 mm 1 m/S 670 mmHg 87%
    17:00 +24°C° 1.3 mm 1 m/S 670 mmHg 89%
    18:00 +23°C° 1.3 mm 1 m/S 670 mmHg 91%
    19:00 +22°C° 1.3 mm 1 m/S 671 mmHg 94%
    20:00 +20°C° 0.6 mm 0 m/S 671 mmHg 94%
    21:00 +20°C° 0.6 mm 0 m/S 671 mmHg 94%
    22:00 +20°C° 0.6 mm 0 m/S 672 mmHg 94%
    23:00 +20°C° 0.1 mm 0 m/S 671 mmHg 94%
    Mehr zeigen